MUOS-4

Last updated on Thu Nov 21 2024 00:02:43 GMT+0000 (Coordinated Universal Time)

1 40887U 15044A 24325.61009958 -.00000092 00000+0 00000+0 0 9995 2 40887 3.3329 35.4564 0051583 355.8415 323.4774 1.00271661 33807
UTC large
Height (km)
Speed (km/s)
/
Latitude / Longitude
Inclination (degrees)
Orbital Period (minutes)
Azimuth
Elevation
Range (km)
Doppler Factor

Next 0 passes for location: London (51.5072 / 0.1276)

Sorry there are no passes over London.